Regional Weather Roundup
Issued by NWS Portland, ME

Home | Current Version | Previous Version | Text Only | Print | Product List | Glossary On
Versions: 1 2 3 4 5 6 7 8 9 10 11 12 13 14 15 16 17 18 19 20 21 22 23 24 25 26 27 28 29 30 31 32 33 34 35 36 37 38 39 40 41 42 43 44 45 46 47 48 49 50
000
ASUS41 KGYX 070410
RWRGYX
WEATHER ROUNDUP FOR MAINE AND NEW HAMPSHIRE
NATIONAL WEATHER SERVICE GRAY ME
1100 PM EST FRI MAR 06 2015

MEZ002-005-006-010-012-015-018-020-021-024-026-027-029-070500-
MAINE

CITY           SKY/WX    TMP DP  RH WIND       PRES   REMARKS
PORTLAND       PTCLDY    21   4  47 SW9       30.26F
SANFORD        PTCLDY    12  -2  52 SW7       30.25F
BAR HARBOR     CLEAR     19  12  73 SW6       30.24F
WISCASSET      PTCLDY     4  -1  80 CALM      30.25F
ROCKLAND       PTCLDY    10   7  85 CALM      30.23F
FRYEBURG       PTCLDY    19 -10  27 SW8       30.20F
LEWISTONAUBURN PTCLDY    16  -6  38 S8        30.20F
AUGUSTA        PTCLDY    14   0  53 S8        30.20F
WATERVILLE     MOCLDY    12   0  57 CALM      30.17F
BANGOR         PTCLDY    14   2  58 S8        30.22F
GREENVILLE       N/A      8  -7  50 E3        30.05F
MILLINOCKET    MOCLDY    14  -5  42 VRB5      30.17F
HOULTON        MOCLDY    13  -5  44 S7        30.13F
PRESQUE ISLE   CLEAR      7 -17  33 CALM      30.09F
FRENCHVILLE    CLEAR      8 -12  39 SW8       30.02F
CARIBOU        CLEAR      7 -12  41 S7        30.07F
$$

NHZ002-005-008-009-011-012-014-070500-
NEW HAMPSHIRE

CITY           SKY/WX    TMP DP  RH WIND       PRES   REMARKS
PORTSMOUTH     MOCLDY    17   1  48 S5        30.26F
ROCHESTER      PTCLDY    16   0  49 CALM      30.25F
NASHUA         CLEAR     14   5  67 CALM      30.30F
MANCHESTER     MOCLDY    21  -2  36 S6        30.27F
CONCORD        CLEAR      8  -1  66 CALM      30.27S
LACONIA        CLEAR     18  -6  35 SW10      30.20F WCI   6
PLYMOUTH       FAIR       3   0  88 CALM      30.23F
BERLIN         PTCLDY    -3 -12  65 CALM      30.13F
WHITEFIELD     PTCLDY    -3 -10  72 CALM      30.15F
JAFFREY        CLEAR     14  -3  47 S6        30.22F
KEENE          CLEAR      9   0  66 CALM      30.26F
LEBANON        PTCLDY    14  -4  44 S10       30.23F WCI   1
MT WASHINGTON  MOCLDY    -6 -15  65 W44         N/A  WCI -38
$$

VTZ005-007-008-070500-
VERMONT

CITY           SKY/WX    TMP DP  RH WIND       PRES   REMARKS
ST JOHNSBURY     N/A      6  -4  63 MISG      30.17F
MONTPELIER     PTCLDY    17  -8  32 SW10G20   30.19F WCI   5
BURLINGTON     MOCLDY    18  -2  41 S13G21    30.21F WCI   5
$$

MAZ007-012-024-CTZ003-RIZ002-NYZ038-NYZ072-070500-
SOUTHERN NEW ENGLAND AND NY

CITY           SKY/WX    TMP DP  RH WIND       PRES   REMARKS
BOSTON         MOCLDY    20   6  55 SW16      30.31F WCI   6
WORCESTER      PTCLDY    15   3  59 SW12      30.23F WCI   2
NANTUCKET      PTCLDY    20  12  71 W8        30.34F
PROVIDENCE     CLOUDY    17   7  64 W6        30.34F
HARTFORD       MOCLDY    19   6  57 S6        30.31F
ALBANY         MOCLDY    15   2  56 CALM      30.30F
NEW YORK CITY  MOCLDY    23   7  50 SW15      30.37F WCI  10
$$

ANZ081-ANZ082-ANZ150-NHZ014-MEZ023>029-070500-
COASTAL MARINE OBSERVATIONS

STATION/POSITION TIME  TEMP    WIND        PRES    WAVE
                       AIR SEA DIR/SP/G            HT/PER
                 (UTC) (F)     (DEG/KT/KT) (MB)    (FT/S)
MOUNT DESERT ROC 0400   27                 1023.7F
MATINICUS ROCK   0400   28     250/ 20/ 23 1024.1F
WELLS            0300   21     230/  8/  9 1024.7F
ISLE OF SHOALS   0400   23     230/ 21/ 23 1024.5F
JEFFREYS LEDGE   0321      40                N/A     4/ 5
CASHES LEDGE BUO 0350   28 42              1024.2F   4/ 4
$$

.............KEY..............
   WCI - WIND CHILL
   TC  - TEMPERATURE IN CELSIUS
   VSB - VISIBILITY IN MILES
   HX  - HEAT INDEX
   FAIR- INDICATES FEW OR NO CLOUDS BELOW 12,000 FT, WITH NO
         SIGNIFICANT WEATHER AND/OR OBSTRUCTIONS TO VISIBILITY.





USA.gov is the U.S. government's official web portal to all federal, state and local government web resources and services.